Satellite-Ground Cal/Val Region Overpasses Predictions

Prediction of Satellite NPP Overpassing Cal/Val Region: PacNW

Region Location: (Latitude: 10.00, Longitude: 139.50) to (Latitude: 22.70, Longitude: 165.60).

Table of predicted overpasses for the next 14.0 days since TLE Epoch: 8/11/2016
Interval Starting Time Starting Location Ending Time Ending Location
1 08/12/2016 03:24:20 ( 10.04, 148.82) 08/12/2016 03:27:55 ( 22.67, 145.82)
2 08/12/2016 15:56:13 ( 22.67, 146.05) 08/12/2016 15:59:48 ( 10.05, 143.05)
3 08/13/2016 03:05:18 ( 10.04, 153.58) 08/13/2016 03:08:53 ( 22.66, 150.58)
4 08/13/2016 15:37:10 ( 22.67, 150.81) 08/13/2016 15:40:45 ( 10.05, 147.81)
5 08/14/2016 02:46:15 ( 10.04, 158.34) 08/14/2016 02:49:50 ( 22.66, 155.34)
6 08/14/2016 15:18:08 ( 22.67, 155.57) 08/14/2016 15:21:43 ( 10.05, 152.57)
7 08/15/2016 02:27:13 ( 10.04, 163.10) 08/15/2016 02:30:48 ( 22.66, 160.10)
8 08/15/2016 14:59:05 ( 22.67, 160.33) 08/15/2016 15:02:40 ( 10.05, 157.33)
9 08/16/2016 02:10:54 ( 19.67, 165.59) 08/16/2016 02:11:45 ( 22.66, 164.86)
10 08/16/2016 03:49:40 ( 10.04, 142.48) 08/16/2016 03:53:13 ( 22.55, 139.51)
11 08/16/2016 14:40:03 ( 22.68, 165.09) 08/16/2016 14:43:38 ( 10.06, 162.09)
12 08/16/2016 16:21:33 ( 22.67, 139.71) 08/16/2016 16:21:47 ( 21.85, 139.51)
13 08/17/2016 03:30:38 ( 10.04, 147.24) 08/17/2016 03:34:13 ( 22.67, 144.24)
14 08/17/2016 16:02:30 ( 22.67, 144.47) 08/17/2016 16:06:05 ( 10.05, 141.47)
15 08/18/2016 03:11:35 ( 10.04, 152.00) 08/18/2016 03:15:10 ( 22.67, 149.00)
16 08/18/2016 15:43:28 ( 22.67, 149.23) 08/18/2016 15:47:03 ( 10.05, 146.23)
17 08/19/2016 02:52:33 ( 10.04, 156.76) 08/19/2016 02:56:08 ( 22.67, 153.76)
18 08/19/2016 15:24:26 ( 22.67, 153.99) 08/19/2016 15:28:00 ( 10.05, 150.99)
19 08/20/2016 02:33:30 ( 10.04, 161.52) 08/20/2016 02:37:05 ( 22.67, 158.52)
20 08/20/2016 15:05:23 ( 22.67, 158.75) 08/20/2016 15:08:58 ( 10.05, 155.75)
21 08/21/2016 02:15:19 ( 13.04, 165.59) 08/21/2016 02:18:03 ( 22.67, 163.28)
22 08/21/2016 03:55:58 ( 10.05, 140.90) 08/21/2016 03:57:40 ( 16.05, 139.51)
23 08/21/2016 14:46:21 ( 22.67, 163.51) 08/21/2016 14:49:56 ( 10.05, 160.51)
24 08/22/2016 03:36:55 ( 10.06, 145.66) 08/22/2016 03:40:30 ( 22.68, 142.66)
25 08/22/2016 14:30:29 ( 11.46, 165.59) 08/22/2016 14:30:53 ( 10.05, 165.27)
26 08/22/2016 16:08:48 ( 22.66, 142.89) 08/22/2016 16:12:23 ( 10.04, 139.89)
27 08/23/2016 03:17:52 ( 10.00, 150.43) 08/23/2016 03:21:28 ( 22.68, 147.42)
28 08/23/2016 15:49:46 ( 22.65, 147.65) 08/23/2016 15:53:21 ( 10.04, 144.65)
29 08/24/2016 02:58:49 ( 10.00, 155.19) 08/24/2016 03:02:25 ( 22.69, 152.18)
30 08/24/2016 15:30:43 ( 22.65, 152.41) 08/24/2016 15:34:18 ( 10.03, 149.41)
31 08/25/2016 02:39:47 ( 10.01, 159.95) 08/25/2016 02:43:23 ( 22.69, 156.94)


NCC Satellite Cal/Val Overpasses Prediction Service
